FW6466 Weather Reports


Display with metric or nautical units.
time (UTC)temp
F
wind
direction
speed
MPH
gust
MPH
rain 1hr
in
rain 24hr
in
rain mn
in
humidity
%
barometer
mb
20260507073017 46 325 4.0 10.0 0.00 0.31 0.00 81 1009.7
20260507072324 46 225 4.0 8.0 0.00 0.31 0.00 81 1009.7
20260507071016 46 332 4.0 14.0 0.00 0.31 0.00 82 1009.7
20260507070018 47 323 5.0 17.0 0.00 0.31 0.00 82 1009.6
20260507065016 47 324 6.0 11.0 0.00 0.31 0.00 83 1009.4
20260507064017 47 319 3.0 12.0 0.00 0.31 0.00 82 1009.3
20260507063016 47 320 4.0 11.0 0.00 0.31 0.00 83 1009.2
20260507062017 47 322 5.0 16.0 0.00 0.31 0.00 83 1009.3
20260507061017 47 316 4.0 13.0 0.00 0.31 0.00 83 1009.3
20260507060016 47 321 3.0 13.0 0.00 0.31 0.00 84 1009.3
20260507055337 47 225 4.0 9.0 0.00 0.31 0.00 84 1009.2
20260507054017 47 315 5.0 10.0 0.00 0.31 0.00 83 1009.3
20260507053036 47 335 3.0 7.0 0.00 0.31 0.00 83 1009.3
20260507052440 47 315 2.0 5.0 0.00 0.31 0.00 84 1009.2
20260507051517 47 326 3.0 10.0 0.00 0.31 0.00 84 1009.1
20260507050816 47 293 3.0 4.0 0.00 0.31 0.00 83 1009.3
20260507050017 47 294 3.0 9.0 0.00 0.31 0.00 84 1009.4
20260507045037 47 327 3.0 8.0 0.00 0.31 0.00 83 1009.5
20260507044017 47 317 4.0 8.0 0.00 0.31 0.00 84 1009.5
20260507043016 47 314 4.0 11.0 0.00 0.31 0.00 84 1009.6
20260507042037 47 315 5.0 11.0 0.00 0.31 0.00 84 1009.6
20260507041018 48 321 4.0 9.0 0.00 0.31 0.00 84 1009.4
20260507040017 48 318 2.0 7.0 0.00 0.31 0.33 84 1009.5
20260507035323 48 315 3.0 8.0 0.00 0.31 0.31 84 1009.5
20260507034516 48 327 3.0 8.0 0.00 0.31 0.33 84 1009.6
20260507033940 48 315 3.0 5.0 0.00 0.31 0.31 84 1009.6
20260507033017 48 302 4.0 10.0 0.00 0.31 0.33 84 1009.5
20260507032057 48 338 3.0 9.0 0.00 0.31 0.31 84 1009.4
20260507031016 48 320 4.0 9.0 0.00 0.31 0.33 83 1009.5
20260507030354 49 225 3.0 3.0 0.00 0.31 0.31 83 1009.6
20260507025517 49 328 3.0 9.0 0.00 0.31 0.33 83 1009.6
20260507024516 49 306 4.0 9.0 0.00 0.31 0.33 83 1009.7
20260507023829 49 315 4.0 11.0 0.00 0.31 0.31 84 1009.8
20260507023017 49 321 5.0 13.0 0.00 0.31 0.33 83 1009.7
20260507022324 49 135 3.0 10.0 0.00 0.31 0.31 83 1009.7
20260507021516 49 326 4.0 11.0 0.00 0.31 0.33 83 1009.7
20260507020821 50 45 2.0 6.0 0.00 0.31 0.31 83 1009.7
20260507015537 50 330 3.0 8.0 0.00 0.31 0.33 82 1009.6
20260507014853 50 0 1.0 5.0 0.01 0.31 0.31 82 1009.6
20260507013516 50 335 1.0 4.0 0.01 0.31 0.33 82 1009.5
20260507012617 50 203 2.0 2.0 0.01 0.31 0.31 82 1009.3
20260507012137 50 312 2.0 5.0 0.01 0.31 0.33 83 1009.3
20260507011058 50 90 2.0 7.0 0.01 0.31 0.31 83 1009.2
20260507010419 50 135 3.0 2.0 0.01 0.31 0.31 83 1009.0
20260507005037 50 317 2.0 13.0 0.01 0.31 0.33 83 1008.9
20260507004016 50 328 3.0 9.0 0.00 0.31 0.32 83 1008.8
20260507003016 50 322 4.0 10.0 0.00 0.31 0.32 84 1008.6
20260507002017 50 326 5.0 12.0 0.00 0.31 0.32 84 1008.3
20260507001158 51 315 4.0 9.0 0.00 0.31 0.31 84 1008.1
20260507000016 51 322 5.0 12.0 0.00 0.31 0.32 84 1008.0
20260506235409 51 0 4.0 12.0 0.00 0.31 0.31 84 1007.7
20260506234017 51 323 4.0 8.0 0.00 0.31 0.32 84 1007.4
20260506233408 51 225 4.0 15.0 0.00 0.31 0.31 84 1007.2
20260506232057 51 0 4.0 11.0 0.00 0.31 0.31 84 1007.1
20260506231516 50 318 5.0 13.0 0.00 0.31 0.32 84 1007.0
20260506230517 50 309 5.0 12.0 0.00 0.31 0.32 84 1006.9
20260506225820 50 315 5.0 14.0 0.00 0.31 0.31 85 1006.7
20260506224820 51 315 5.0 9.0 0.00 0.31 0.31 84 1006.6
20260506224016 51 332 7.0 18.0 0.00 0.31 0.32 84 1006.5
20260506223320 51 315 4.0 14.0 0.00 0.31 0.31 84 1006.4
20260506222517 51 323 6.0 13.0 0.00 0.31 0.32 83 1006.4
20260506221819 51 315 3.0 6.0 0.00 0.31 0.31 82 1006.3
20260506221037 51 332 4.0 10.0 0.00 0.31 0.32 82 1006.3
20260506220319 52 0 3.0 5.0 0.01 0.31 0.31 82 1006.1
20260506215517 52 333 3.0 11.0 0.01 0.31 0.32 82 1006.0
20260506214901 52 270 4.0 8.0 0.01 0.31 0.31 82 1006.1
20260506214017 52 338 5.0 11.0 0.01 0.31 0.32 82 1006.1
20260506213320 53 0 4.0 10.0 0.01 0.31 0.31 81 1005.9
20260506212324 54 90 3.0 6.0 0.01 0.31 0.31 81 1005.8
20260506211016 55 335 3.0 8.0 0.01 0.31 0.32 82 1005.6
20260506210449 55 0 3.0 3.0 0.00 0.30 0.30 81 1005.4
20260506205517 55 336 4.0 12.0 0.00 0.31 0.31 82 1005.4
20260506204910 56 315 3.0 7.0 0.00 0.31 0.30 81 1005.3
20260506203920 57 315 3.0 5.0 0.00 0.31 0.30 81 1005.1
20260506203016 57 331 3.0 9.0 0.00 0.31 0.31 80 1005.1
20260506202321 57 270 4.0 4.0 0.00 0.31 0.30 80 1005.0
20260506201036 58 331 4.0 9.0 0.00 0.31 0.31 79 1005.1
20260506200017 59 333 5.0 11.0 0.00 0.31 0.31 79 1005.2
20260506195211 61 0 3.0 13.0 0.00 0.31 0.30 78 1005.2
20260506194018 63 293 2.0 4.0 0.00 0.31 0.31 79 1005.1
20260506193408 63 0.0 0.0 0.00 0.31 0.30 77 1005.1
20260506192516 63 1 0.0 1.0 0.00 0.31 0.31 77 1005.1
20260506191843 63 225 1.0 2.0 0.01 0.31 0.30 79 1005.1
20260506190920 63 135 1.0 2.0 0.01 0.31 0.30 79 1004.9
20260506190016 63 101 1.0 4.0 0.02 0.31 0.31 79 1004.9
20260506185057 64 180 1.0 5.0 0.02 0.31 0.30 80 1005.0
20260506184323 63 23 1.0 2.0 0.02 0.31 0.30 80 1005.1
20260506183340 63 90 1.0 1.0 0.02 0.31 0.30 79 1005.2
20260506182517 62 114 1.0 3.0 0.02 0.31 0.31 80 1005.3
20260506181910 62 0 1.0 2.0 0.03 0.30 0.29 78 1005.4
20260506181035 62 70 0.0 2.0 0.03 0.30 0.31 78 1005.4
20260506180147 62 158 1.0 3.0 0.04 0.29 0.28 79 1005.4
20260506175516 62 95 1.0 4.0 0.04 0.29 0.30 79 1005.4
20260506174516 61 105 1.0 3.0 0.04 0.28 0.29 80 1005.4
20260506173900 61 180 1.0 2.0 0.06 0.28 0.28 80 1005.5
20260506173016 61 131 1.0 3.0 0.06 0.28 0.28 80 1005.5
20260506172037 61 146 1.0 3.0 0.06 0.28 0.28 80 1005.6
20260506171017 60 84 1.0 4.0 0.06 0.27 0.27 80 1005.7
20260506170109 60 90 1.0 1.0 0.05 0.25 0.24 80 1005.8
20260506165052 60 135 1.0 2.0 0.05 0.24 0.24 79 1005.9
20260506164400 59 0 1.0 2.0 0.05 0.24 0.23 79 1006.1
20260506163516 59 97 1.0 3.0 0.05 0.24 0.24 79 1006.1
20260506162947 59 90 1.0 1.0 0.05 0.22 0.21 79 1006.1
20260506161820 59 90 2.0 2.0 0.05 0.21 0.20 79 1006.2
20260506160825 59 90 1.0 3.0 0.05 0.20 0.20 78 1006.4
20260506160017 59 108 1.0 3.0 0.05 0.20 0.20 79 1006.4
20260506155319 59 90 2.0 3.0 0.05 0.20 0.19 80 1006.5
20260506154409 59 90 1.0 3.0 0.05 0.19 0.18 79 1006.7
20260506153517 59 92 2.0 4.0 0.05 0.19 0.19 78 1006.8
20260506152824 59 45 1.0 1.0 0.05 0.17 0.17 77 1006.8
20260506152017 58 87 1.0 2.0 0.05 0.17 0.17 78 1006.9
20260506151323 58 90 1.0 2.0 0.06 0.17 0.16 78 1007.0
20260506150408 58 90 1.0 1.0 0.06 0.16 0.15 76 1007.1
20260506145321 58 90 1.0 3.0 0.06 0.15 0.14 77 1007.3
20260506144326 58 0.0 0.0 0.06 0.14 0.13 77 1007.6
20260506143517 58 90 0.0 2.0 0.06 0.14 0.13 76 1007.7
20260506142536 58 90 1.0 2.0 0.06 0.13 0.13 77 1007.9
20260506141610 58 0.0 0.0 0.05 0.12 0.11 77 1007.9
20260506140908 58 0.0 0.0 0.03 0.10 0.09 76 1007.8
20260506135819 58 0.0 0.0 0.03 0.09 0.09 76 1007.8
20260506134819 58 0.0 1.0 0.04 0.09 0.09 76 1007.7
20260506133818 58 0.0 0.0 0.02 0.08 0.07 75 1007.6
20260506132826 58 45 1.0 0.0 0.04 0.08 0.07 77 1007.4
20260506131820 58 0.0 0.0 0.04 0.07 0.06 75 1007.4
20260506130827 58 0.0 0.0 0.05 0.07 0.06 76 1007.5
20260506130037 57 90 0.0 1.0 0.05 0.07 0.06 76 1007.5
20260506125320 57 0.0 1.0 0.05 0.06 0.06 77 1007.7
20260506124516 57 80 1.0 2.0 0.05 0.06 0.06 75 1007.8
20260506123820 57 0.0 0.0 0.05 0.06 0.05 76 1008.0
20260506122637 57 0.0 0.0 0.03 0.04 0.03 78 1008.1
20260506121909 57 0.0 0.0 0.02 0.03 0.02 78 1008.1
20260506120844 56 135 1.0 2.0 0.02 0.02 0.02 78 1008.1
20260506120017 56 320 1.0 2.0 0.02 0.02 0.02 78 1008.2
20260506115420 56 0.0 0.0 0.01 0.02 0.01 78 1008.0
20260506114341 56 90 1.0 0.0 0.00 0.01 0.00 78 1007.7
20260506113319 55 0 1.0 1.0 0.00 0.01 0.00 78 1007.7
20260506112516 56 264 2.0 2.0 0.00 0.01 0.00 77 1007.7
20260506111820 55 270 1.0 0.0 0.00 0.01 0.00 76 1007.6
20260506111016 55 321 1.0 3.0 0.00 0.01 0.00 76 1007.7
20260506110136 55 225 1.0 1.0 0.00 0.01 0.00 76 1007.7
20260506105517 55 225 0.0 1.0 0.00 0.01 0.00 76 1007.6
20260506104941 55 225 2.0 2.0 0.00 0.01 0.00 78 1007.6
20260506103821 55 270 2.0 3.0 0.00 0.01 0.00 78 1007.6
20260506103035 55 329 3.0 6.0 0.00 0.01 0.00 78 1007.6
20260506102016 55 329 4.0 7.0 0.00 0.01 0.00 78 1007.6
20260506101324 55 315 2.0 4.0 0.00 0.02 0.00 76 1007.5
20260506100017 56 322 3.0 5.0 0.00 0.02 0.00 75 1007.4
20260506095420 56 315 1.0 2.0 0.00 0.02 0.00 73 1007.2
20260506094015 56 323 1.0 2.0 0.00 0.02 0.00 72 1007.1
20260506093408 56 0.0 1.0 0.00 0.02 0.00 71 1007.1
20260506092517 56 352 0.0 2.0 0.00 0.02 0.00 71 1007.2
20260506091819 56 270 1.0 1.0 0.00 0.02 0.00 72 1007.3
20260506091016 56 329 1.0 3.0 0.00 0.02 0.00 71 1007.5
20260506090321 56 0.0 1.0 0.00 0.02 0.00 71 1007.6
20260506085320 56 0.0 0.0 0.00 0.02 0.00 70 1007.6
20260506084536 56 270 0.0 1.0 0.00 0.02 0.00 70 1007.8
20260506083928 56 0.0 1.0 0.00 0.02 0.00 70 1007.9
20260506082824 56 0.0 1.0 0.00 0.02 0.00 69 1008.0
20260506081822 56 0.0 0.0 0.00 0.02 0.00 70 1008.1
20260506081018 56 0.0 0.0 0.00 0.02 0.00 69 1008.1
20260506080119 57 0.0 0.0 0.00 0.02 0.00 68 1008.2